FW0527 Weather Reports


time (UTC)temp
F
wind
direction
speed
knots
gust
knots
rain 1hr
in
rain 24hr
in
rain mn
in
humidity
%
barometer
mb
20260905184541 85 309 0.0 0.0 0.00 0.00 0.00 29 1013.9
20260905183038 84 220 0.0 6.1 0.00 0.00 0.00 31 1014.1
20260905181536 84 238 0.0 1.7 0.00 0.00 0.00 33 1014.1
20260905180047 83 271 0.0 3.5 0.00 0.00 0.00 33 1014.2
20260905174529 82 234 0.0 2.6 0.00 0.00 0.00 32 1014.1
20260905173027 81 318 0.9 4.3 0.00 0.00 0.00 33 1014.1
20260905171530 80 230 0.0 6.1 0.00 0.00 0.00 32 1013.8
20260905170024 80 239 0.0 3.5 0.00 0.00 0.00 34 1013.7
20260905164523 80 247 0.0 6.1 0.00 0.00 0.00 32 1013.6
20260905163019 79 228 0.0 5.2 0.00 0.00 0.00 31 1013.6
20260905161523 76 166 0.0 1.7 0.00 0.00 0.00 30 1013.6
20260905160010 73 158 0.0 0.0 0.00 0.00 0.00 31 1013.6
20260905154506 68 150 0.0 2.6 0.00 0.00 0.00 36 1013.7
20260905153002 65 160 0.0 0.0 0.00 0.00 0.00 41 1013.8
20260905151558 62 144 0.0 0.0 0.00 0.00 0.00 44 1013.9
20260905150053 60 163 0.0 0.0 0.00 0.00 0.00 46 1013.6
20260905144549 58 161 0.0 0.0 0.00 0.00 0.00 47 1013.5
20260905143047 58 163 0.0 0.0 0.00 0.00 0.00 44 1013.4
20260905141546 58 163 0.0 0.0 0.00 0.00 0.00 43 1013.2
20260905140047 58 163 0.0 0.0 0.00 0.00 0.00 41 1012.9
20260905134552 57 163 0.0 0.0 0.00 0.00 0.00 40 1012.7
20260905133048 57 163 0.0 0.0 0.00 0.00 0.00 41 1012.5
20260905131544 57 163 0.0 0.0 0.00 0.00 0.00 41 1012.5
20260905130041 57 163 0.0 0.0 0.00 0.00 0.00 41 1012.4
20260905124544 57 163 0.0 0.0 0.00 0.00 0.00 42 1012.3
20260905123041 57 163 0.0 0.0 0.00 0.00 0.00 40 1012.3
20260905121544 57 163 0.0 0.0 0.00 0.00 0.00 39 1012.3
20260905120052 57 163 0.0 0.0 0.00 0.00 0.00 39 1012.4
20260905114550 58 163 0.0 0.0 0.00 0.00 0.00 40 1012.3
20260905113046 58 163 0.0 0.0 0.00 0.00 0.00 41 1012.5
20260905111609 58 163 0.0 0.0 0.00 0.00 0.00 42 1012.4
20260905110033 57 163 0.0 0.0 0.00 0.00 0.00 42 1012.8
20260905104531 57 163 0.0 0.0 0.00 0.00 0.00 42 1012.8
20260905103035 56 163 0.0 0.0 0.00 0.00 0.00 39 1012.9
20260905101529 56 163 0.0 0.0 0.00 0.00 0.00 36 1012.8
20260905100027 56 163 0.0 0.9 0.00 0.00 0.00 35 1012.9
20260905094526 56 163 0.0 2.6 0.00 0.00 0.00 35 1013.1
20260905093024 55 170 0.0 0.0 0.00 0.00 0.00 37 1013.1
20260905091520 55 96 0.0 0.0 0.00 0.00 0.00 38 1013.0
20260905090018 54 95 0.0 0.0 0.00 0.00 0.00 40 1013.1
20260905084517 54 94 0.0 0.0 0.00 0.00 0.00 41 1013.3
20260905083015 54 94 0.0 0.0 0.00 0.00 0.00 42 1013.4
20260905081512 54 94 0.0 0.0 0.00 0.00 0.00 45 1013.4
20260905080011 54 94 0.0 0.0 0.00 0.00 0.00 47 1013.4
20260905074510 54 94 0.0 0.0 0.00 0.00 0.00 48 1013.6
20260905073008 54 94 0.0 0.0 0.00 0.00 0.00 49 1013.6
20260905071505 54 94 0.0 0.0 0.00 0.00 0.00 48 1013.3
20260905070007 54 94 0.0 0.0 0.00 0.00 0.00 47 1013.4
20260905064510 55 94 0.0 0.0 0.00 0.00 0.00 47 1013.0
20260905063003 55 94 0.0 0.0 0.00 0.00 0.00 49 1013.1
20260905061502 56 94 0.0 0.0 0.00 0.00 0.00 50 1013.0
20260905060001 56 94 0.0 0.0 0.00 0.00 0.00 52 1013.0
20260905054506 57 94 0.0 0.0 0.00 0.00 0.00 52 1012.9
20260905053001 57 94 0.0 0.0 0.00 0.00 0.00 53 1012.9
20260905051600 58 94 0.0 0.0 0.00 0.00 0.00 53 1012.9
20260905050101 59 94 0.0 0.0 0.00 0.00 0.00 55 1012.8
20260905044559 60 94 0.0 0.0 0.00 0.00 0.00 54 1012.6
20260905043105 60 94 0.0 0.0 0.00 0.00 0.00 50 1012.5
20260905041601 60 300 0.0 0.0 0.00 0.00 0.00 48 1012.7
20260905040057 61 302 0.0 0.0 0.00 0.00 0.00 50 1012.6
20260905034604 61 302 0.0 0.0 0.00 0.00 0.00 50 1012.4
20260905033057 62 302 0.0 0.0 0.00 0.00 0.00 50 1012.2
20260905031557 64 302 0.0 0.0 0.00 0.00 0.00 50 1012.1
20260905030115 66 302 0.0 0.0 0.00 0.00 0.00 48 1012.0
20260905024557 67 302 0.0 0.0 0.00 0.00 0.00 47 1012.0
20260905023155 68 302 0.0 0.0 0.00 0.00 0.00 46 1011.9
20260905021553 69 302 0.0 0.0 0.00 0.00 0.00 45 1011.7
20260905020053 70 302 0.0 1.7 0.00 0.00 0.00 44 1011.8
20260905014557 71 294 0.0 0.0 0.00 0.00 0.00 43 1011.7
20260905013054 72 300 0.0 0.9 0.00 0.00 0.00 43 1011.7
20260905011552 73 302 0.0 4.3 0.00 0.00 0.00 42 1011.7
20260905010051 73 296 0.0 7.0 0.00 0.00 0.00 41 1011.7
20260905004551 74 301 0.9 7.0 0.00 0.00 0.00 41 1011.7
20260905003050 75 296 0.0 2.6 0.00 0.00 0.00 40 1011.8
20260905001549 76 279 0.0 4.3 0.00 0.00 0.00 41 1011.7
20260905000049 76 315 1.7 10.4 0.00 0.00 0.00 41 1011.8
20260904234550 77 304 2.6 11.3 0.00 0.00 0.00 40 1011.8
20260904233046 78 313 0.9 12.2 0.00 0.00 0.00 39 1011.9
20260904231544 78 298 3.5 10.4 0.00 0.00 0.00 38 1011.8
20260904230043 79 306 3.5 10.4 0.00 0.00 0.00 37 1011.9
20260904224542 80 313 3.5 12.2 0.00 0.00 0.00 35 1011.9
20260904223048 81 281 0.9 6.1 0.00 0.00 0.00 32 1011.9
20260904221547 81 255 0.0 3.5 0.00 0.00 0.00 30 1012.2
20260904220041 82 273 0.0 11.3 0.00 0.00 0.00 28 1012.2
20260904214539 82 246 0.9 14.8 0.00 0.00 0.00 29 1012.3
20260904213033 84 288 3.5 10.4 0.00 0.00 0.00 27 1012.2
20260904211535 86 283 1.7 10.4 0.00 0.00 0.00 25 1012.3
20260904210028 86 170 0.0 7.8 0.00 0.00 0.00 22 1012.5
20260904204528 87 317 0.9 7.0 0.00 0.00 0.00 22 1012.4
20260904203030 87 237 0.0 3.5 0.00 0.00 0.00 20 1012.4
20260904201529 86 263 0.9 7.0 0.00 0.00 0.00 18 1012.5
20260904200019 86 234 0.0 2.6 0.00 0.00 0.00 18 1012.8
20260904194533 85 211 0.0 0.0 0.00 0.00 0.00 17 1012.9
20260904193032 84 194 0.9 7.0 0.00 0.00 0.00 17 1013.2
20260904191513 84 150 0.0 4.3 0.00 0.00 0.00 17 1013.3
20260904190010 83 195 0.0 7.0 0.00 0.00 0.00 17 1013.2